Terminal Aerodrome Forecast
Issued by NWS Pocatello, ID

Home | Current Version | Previous Version | Text Only | Print | Product List | Glossary On
Versions: 1 2 3 4 5 6 7 8 9 10 11 12 13 14 15 16 17 18 19 20 21 22
000
FTUS45 KPIH 052300
TAFPIH
TAF
KPIH 052320Z 0600/0624 22012KT P6SM FEW160
     FM060300 20008KT P6SM FEW160
     FM061800 24011KT P6SM FEW160=

USA.gov is the U.S. government's official web portal to all federal, state and local government web resources and services.